STARLINK-1154, 45198

Orbit data source: Space-Track

STARLINK-1154, 45198 is a payload satellite owned by SpaceX/Seattle (US) in LEO that was launched on Mon, 17 Feb 2020 UTC via an FALCON 9 launch vehicle from the Air Force Eastern Test Range (AFETR). Payload-class satellites include a variety of spacecraft equipped with specific instruments for various scientific and technological missions. These include communications satellites like Starlink; space stations such as the ISS; scientific satellites like the Hubble; Earth observation satellites from companies like Planet Labs, Umbra, and HawkEye 360; GPS; miniature CubeSats for education and research; and military/defense satellites.

Loading next visibility...
Identifier
45198, 2020-012W
Orbit
LEO
Country
Flag of USUS
Related business
Manufacturer
SpaceX/Seattle
Mission
Operational Commercial Communications
Bus & Motor
STARLINK, Unknown motor
Mass
260 kg wet, ~248 kg dry
Launch date (UTC)
2020-02-17 (6 years ago)
Launch vehicle
FALCON 9
Launch site
Air Force Eastern Test Range (AFETR)
Object type
Payload
Rocket body
Debris
Shape & HBR
Box + 1 Pan, 10.1 m
Radar Cross Section
13.562 m², Large (>1 m²)

Expand to show TLE details & history
Last TLE update: 14 hours ago

TLE from 14 hours ago
0 STARLINK-1154
1 45198U 20012W   25340.57232012  .00001024  00000-0  87619-4 0  9990
2 45198  53.0580  84.6382 0001259  72.6553 287.4574 15.06394335321020
Epoch: 2025-12-06T13:44Z
TLE epoch observation values (Epoch: 2025-12-06T13:44:08.458Z)
Latitude
0.00001°
Longitude
163.00483°
Altitude
547.847 km
Speed
7.589 km/s
True Right ascension
05h 38m 33s
True Declination
0° 00' 00"
Sunlit
Object was in full shadow at epoch
Visualization orbit readout
Latitude
Unknown
Longitude
Unknown
Altitude
Unknown
Speed
Unknown
Apparent Right ascension
Unknown
Apparent Declination
Unknown
Sunlit
N/A
Visualization observer readout
Local Sidereal Time
01:40:23
Azimuth
Unknown
Elevation
Unknown
Doppler factor
Unknown
Orbital elements
Apogee altitude
548.371 km
Perigee altitude
546.627 km
Semi-major axis
6,925.636 km
Eccentricity
0.00013
Inclination
53.058°
RAAN
84.6382°
Arg. of periapsis
72.6553°
True anomaly
287.44364°
Mean anomaly
287.4574°
Eccentric anomaly
287.45052°
Mean motion
3.76577 °/min
Orbital period
95.6 mins
BSTAR
0.000087619
Loading maneuver chart data...
Computing Atmospheric mass density...

Documentation

Showing up to 5 results
|